Погода Лиепая

Погода Лиепая : погода сейчас, прогноз погоды и архив. Всё, что Вы хотите узнать о погоде Лиепая!

Поиск расширенной информации на нашем сайте:

Другие новости

Новости СМИ2

Главная страница сайта

Новости сайта

03.07.2017

Напоминаем, что на нашем специализированном сайте Метеоцентр.Азия вы можете получить высокодетализированные автоматические прогнозы погоды по пунктам России, СНГ и мира в авиационном формате (включающие направление и скорость ветра, видимость, явления погоды, количество и форму облачности, нижнюю и верхнюю границу облачности).


Погода Лиепая - сегодня

Время (UTC), дата Ветер
(°,м/с) 
Видим.   Явления Облачность Т
(°С)
Тd
(°С)
f(%) Тe
(°С)
Pmin
(гПа)
dP
(гПа)
Po
(мм)
O2
(г/м3)
Тmin Tmax R s Состояние
почвы
06 17.06.18 230 (ЮЗ) 10 км    8/4 630 м средняя 
[Sc|Ac trans]
+16.9 +13.9 82 +24  1016.5  -0.2  762  286  +11.3         
09 17.06.18 250 (З) 10 км    6/1 1000 м средняя, верхняя 
[Cu hum|Ac trans|Ci sp]
+19 +14.2 74 +27  1016.6  0.1  762  283           
12 17.06.18 240 (ЮЗ) 20000 м    6/1 1000 м верхняя 
[Cu hum|Ci sp]
+19.3 +12.9 66 +25  1016  -0.6  762  284           
15 17.06.18 240 (ЮЗ) 20000 м    4/0 верхняя 
[Ci fib]
+20.8 +7.3 42 +21  1015.3  -0.7  761  283           
18 17.06.18 130 (ЮВ) 10 км    ясно 
+21.1 +10.8 52 +23  1014.4  -0.9  760  282    +22.5       
21 17.06.18 тихо ()   10 км    3/0 средняя, верхняя 
[Ac trans|Ci fib]
+14 +12 88 +18  1014.5  0.1  760  288           
00 18.06.18 тихо ()   10 км    8/4 600 м кучево-дожд., средняя 
[Cb calv|Ac trans]
+14.8 +12.2 84 +19  1014.6  0.1  761  288           
03 18.06.18 230 (ЮЗ) 10 км  в посл. час ливневой дождь  9/8 450 м кучево-дожд., средняя 
[Cb calv|Ac trans]
+16.7 +15.3 91 +27  1015.5  0.9  761  285           
06 18.06.18 300 (СЗ) 10 км  {ливн. осадки}  6/4 600 м средняя, верхняя 
[Sc|Ac trans|Ci sp]
+18 +13.2 74 +24  1015.9  0.4  761  284  +13.9       
09 18.06.18 250 (З) 10 км    8/4 600 м средняя 
[Sc|Ac trans]
+19 +12.4 66 +24  1017.5  1.6  763  284           
12 18.06.18 240 (ЮЗ) 20000 м    8/3 600 м средняя, верхняя 
[Cu med, cong|Ac trans|Ci sp]
+19.2 +10.7 58 +22  1018.1  0.6  763  285           
15 18.06.18 240 (ЮЗ) 20000 м    8/3 600 м средняя, верхняя 
[Cu hum|Ac trans|Ci sp]
+18.9 +11.6 63 +22  1017.8  -0.3  763  285           
18 18.06.18 230 (ЮЗ) 20000 м    6/3 600 м средняя 
[Cu hum|Ac trans]
+17.2 +12 71 +22  1016.9  -0.9  762  286    +19.5       
21 18.06.18 210 (ЮЗ) 10 км    3/0 средняя, верхняя 
[Ac trans|Ci fib]
+16.2 +13.4 83 +22  1017.2  0.3  762  286           
00 19.06.18 220 (ЮЗ) 10 км    ясно 
+16.5 +13.5 82 +23  1015.7  -1.5  761  287           
03 19.06.18 220 (ЮЗ) 5{10}  10 км    8/4 600 м средняя 
[Sc|Ac trans]
+17.1 +14.1 83 +24  1014.5  -1.2  760  285           
06 19.06.18 210 (ЮЗ) 5{10}  10 км    10/0 средняя 
[Ac und]
+17.7 +14.7 83 +26  1013.4  -1.1  759  283  +16         
09 19.06.18 230 (ЮЗ) 6{11}  10 км  в посл. час ливневой дождь  10/6 480 м кучево-дожд., средняя 
[Cb calv|Ac und]
+17.8 +14.8 83 +26  1013.1  -0.3  759  283           
12 19.06.18 250 (З) 6-10{12}  10 км  {ливн. осадки}  9/4 600 м средняя 
[Cu med, cong|Ac trans]
+17.8 +13.6 76 +24  1013.4  0.3  760  285           
15 19.06.18 240 (ЮЗ) 6-10{11}  10 км  {ливн. осадки}  4/3 1000 м верхняя 
[Cu med, cong|Ci sp]
+18.1 +12.9 72 +23  1013.8  0.4  760  284           
18 19.06.18 240 (ЮЗ) 6-10{12}  10 км  {ливн. осадки}  8/1 1000 м средняя, верхняя 
[Cu med, cong|Ac trans|Ci sp]
+16.7 +14.3 86 +23  1013.9  0.1  760  285    +19  0.3     
21 19.06.18 240 (ЮЗ) 5{10}  10 км    ясно 
+16.2 +13.8 86 +22  1014  0.1  760  286           
00 20.06.18 270 (З) 3{10}  10 км    ясно 
+15.8 +10.5 71 +18  1014.7  0.7  761  288           
03 20.06.18 270 (З) 5-10{11}  10 км    3/0 средняя 
[Ac trans]
+15 +9.1 68 +15  1015.8  1.1  761  288           
06 20.06.18 270 (З) 5{11}  20000 м    4/1 1000 м средняя, верхняя 
[Cu hum|Ac trans|Ci sp]
+15.6 +8.5 63 +15  1017.1  1.3  762  288  +14.7         
Время (UTC), дата Ветер
(°,м/с) 
Видим.   Явления Облачность Т
(°С)
Тd
(°С)
f(%) Тe
(°С)
Pmin
(гПа)
dP
(гПа)
Po
(мм)
O2
(г/м3)
Тmin Tmax R s Состояние
почвы

Для получения пояснительной информации подведите курсор к названию столбца.

ПОГОДА Лиепая - архив

Всё, что Вы хотите узнать о погоде Лиепая - удобно и подробно!

Выберите нужную дату (начиная с 1 января 2015* года) и нажмите кнопку "Найти".
Будут отображены архивные сводки погоды по пункту Лиепая, начиная с указанной даты.


Отображать данные в формате CSV (для использования в таблицах Excel)


Внимание! Наш архив погоды предназначен исключительно для личного некоммерческого использования в познавательных целях. Если Вам необходимы официальные справки о состоянии погоды (для производственных, юридических, коммерческих и т.п. целей), обращайтесь в органы Росгидромета.

*Примечание: данная дата относится к архиву по метеостанциям СССР (Россия, СНГ, Балтия).
Архив по метеостанциям Зарубежной Европы и Азии (кроме Китая) хранится 10 дней, по другим регионам земного шара (Китай, Африка, Америка, Австралия, Океания) - 1 день.

Лиепая - район местоположения метеостанции


Название, широта, долгота, высота метеостанции:
Лиепая 56.5°ш. 21°д. 7 м над ур. моря [Латвия]

Дополнительная информация

В oтличие oт бoльшинства пoгoдных сайтoв мы публикуем пoдрoбную метеoинфoрмацию в детальнoм прoфессиoнальнoм фoрмате.

Характеристики температуры и влажнoсти вoздуха измеряются на высoте 2 м в тени вдали oт зданий и деревьев.
Скoрoсть ветра измеряется на высoте 10 м (на урoвне рoста челoвека скoрoсть ветра ниже в 1.5-2 раза). Если метеoстанция нахoдится в гoрoде или в лесу, тo скoрoсть ветра занижена на 2-4 м/с пo сравнению с oткрытым местoм. Скoрoсть ветра над акватoриями крупных рек и oзёр, а также на вершинах хoлмoв на 2-5 м/с выше, чем в oбычных услoвиях.
Атмoсфернoе давление в разных тoчках местнoсти мoжет значительнo oтличаться oт давления на метеoстанции, в зависимoсти oт услoвий рельефа (при пoдъёме на 10 м давление пoнижается примернo на 1 мм рт.ст.).